Find Starlink 5497

NORAD ID: 55629 Int'l Des: 2023-021 Owner: SPXS Country: US Constellation: starlink operational
LEOCIRCULAR

現在のビュー

3D地球を読み込み中...

About Starlink 5497

Starlink 5497 (NORAD 55629) is a starlink constellation satellite (v1.5) launched Feb 17, 2023 by SPXS of US. It operates in LEO, CIRCULAR orbit with a mass of 305.00 kg.

Starlink 5497について

説明を読み込み中...

次回通過

Passes for default location (London). Set your location on the main map for personalized predictions.

高度履歴

Loading altitude history...

軌道要素

1 55629U 23021B 26167.14841679 .00000106 00000-0 16650-4 0 9996
2 55629 69.9996 316.3172 0002779 264.7240 95.3602 14.98328550183046
Epoch: Jun 16, 2026 • Age: 8 hours

現在のステータス

高度 580.5 km
速度 7.57 km/s
衛星直下点 47.66°N, 102.95°W
打ち上げ日 Feb 17, 2023
運用期間 3.3 years
タイプ internet

技術仕様

分類 Payload
質量 305.00 kg
乾燥質量 290.00 kg
総質量 305.00 kg
長さ 0.20 m
直径 2.80 m
スパン 9.00 m
形状 Box + pan
製造者 SPXS
バスタイプ Starlink
フェーズステータス In Orbit
所有者/国 SPXS/US

Most Searched